Flag for Poland Weather past 2 weeks in Lódz, Poland

Now
68 °F

Overcast.


Feels Like: 68 °F
Forecast: 56 / 69 °F
Wind: 6 mph from West

Location: Lodz

Current Time: Jul 28, 2015 at 11:05:20 AM

Latest Report: Jul 28, 2015 at 10:00 AM


Visibility: 13 mi

Pressure: 29.68 "Hg

Humidity: 59%

Dew point: 53 °F

Location of LódzLocation

Historic Weather in Lódz — Graph

°F

Lódz temperature yesterday

Maximum temperature yesterday: 69 °F (at 7:00 PM)
Minimum temperature yesterday: 46 °F (at 4:00 AM)
Average temperature yesterday: 61 °F

Past Weeks' High & Low Weather Summary

 TemperatureHumidityPressure
High92 °F (Jul 18, 3:00 PM)96% (Jul 15, 3:00 AM)30.11 "Hg (Jul 15, 3:00 AM)
Low46 °F (Jul 27, 4:00 AM)31% (Jul 24, 12:00 PM)29.63 "Hg (Jul 25, 3:00 PM)
Average68 °F69%29.90 "Hg
* Reported Jul 13 10:00 AM — Jul 28 10:00 AM, Lódz, Weather by CustomWeather, © 2015

Note: Actual official high and low records may vary slightly from our data, if they occured in-between our weather recording intervals... More about our weather records

Advertising

Lódz weather history for previous 24 hours

 ConditionsComfort  
Time TempWeatherWind HumidityBarometerVisibility
10:00 AM
Tue, Jul 28
68 °FOvercast.6 mph59%29.68 "Hg12 mi
8:00 AM62 °FScattered clouds.5 mph77%29.69 "Hg12 mi
7:00 AM60 °FPartly sunny.5 mph82%29.69 "Hg12 mi
6:00 AM57 °FPartly sunny.1 mph89%29.68 "Hg7 mi
4:00 AM58 °FPassing clouds.3 mph89%29.67 "Hg12 mi
3:00 AM58 °FPassing clouds.3 mph91%29.67 "Hg12 mi
2:00 AM58 °FPassing clouds.2 mph88%29.67 "Hg12 mi
1:00 AM59 °FOvercast.2 mph87%29.67 "Hg12 mi
12:00 AM61 °FOvercast.5 mph86%29.67 "Hg12 mi
10:00 PM
Mon, Jul 27
62 °FOvercast.3 mph81%29.65 "Hg12 mi
9:00 PM65 °FOvercast.2 mph70%29.64 "Hg12 mi
8:00 PM67 °FPartly sunny.1 mph62%29.63 "Hg12 mi
7:00 PM69 °FPartly sunny.3 mph56%29.63 "Hg12 mi
6:00 PM68 °FPartly sunny.3 mph57%29.64 "Hg12 mi
5:00 PM68 °FOvercast.3 mph57%29.65 "Hg12 mi
4:00 PM67 °FOvercast.3 mph57%29.67 "Hg12 mi
3:00 PM65 °FOvercast.3 mph60%29.68 "Hg12 mi
2:00 PM66 °FOvercast.3 mph61%29.70 "Hg12 mi
1:00 PM67 °FOvercast.5 mph58%29.70 "Hg12 mi
12:00 PM68 °FOvercast.3 mph58%29.71 "Hg12 mi
11:00 AM67 °FOvercast.5 mph59%29.72 "Hg12 mi
Weather by CustomWeather, © 2015

See weather overviewHow to use our weather pages